014  
ASUS42 KRAH 152210  
RWRRAH  
NORTH CAROLINA WEATHER ROUNDUP  
NATIONAL WEATHER SERVICE RALEIGH NC  
600 PM EDT MON JUL 15 2019  
 
NOTE: "FAIR" INDICATES FEW OR NO CLOUDS BELOW 12,000 FEET WITH NO  
SIGNIFICANT WEATHER AND/OR S TO VISIBILITY
.  
 
NCZ001-053-055-056-065-067-152300-  
WESTERN NORTH CAROLINA  
 
CITY SKY/WX TMP DP RH WIND PRES REMARKS
 
ASHEVILLE HVY RAIN 72 66 81 NW12 30.24R VSB 1  
JEFFERSON FAIR 80 64 59 CALM 30.23S  
MORGANTON FAIR 90 63 40 SW3 30.14F  
HICKORY FAIR 89 68 49 W7 30.10F  
WILKESBORO NOT AVBL  
RUTHERFORDTON NOT AVBL  
MOUNT AIRY FAIR 88 72 60 CALM 30.12S  
BOONE FAIR 82 61 49 CALM 30.23S  

 
 
NCZ021-022-025-041-071-084-088-152300-  
CENTRAL NORTH CAROLINA  
 
CITY SKY/WX TMP DP RH WIND PRES REMARKS
 
CHARLOTTE PTSUNNY 91 67 44 W5 30.07F THUNDER  
GREENSBORO PTSUNNY 91 68 46 W6 30.07S HX 95  
WINSTON-SALEM CLOUDY 91 68 46 E3 30.08F HX 95  
RALEIGH-DURHAM PTSUNNY 93 68 43 VRB7 30.04F HX 97  
FORT BRAGG FAIR 95 67 40 CALM 30.02F HX 99  
FAYETTEVILLE FAIR 96 70 42 NE6 30.02F HX 102  
BURLINGTON FAIR 96 66 37 W7 30.05F HX 99  
ROXBORO FAIR 91 63 38 NE6 30.07S  
HENDERSON FAIR 91 64 41 CALM 30.05F  
LOUISBURG FAIR 91 68 46 E3 30.07S HX 95  
LAURINBURG FAIR 97 67 37 SW3 30.03F HX 101  

 
 
NCZ011-015-027-028-043-044-047-080-103-152300-  
NORTHEASTERN NORTH CAROLINA  
 
CITY SKY/WX TMP DP RH WIND PRES REMARKS
 
ROCKY MT-WILSO FAIR 95 70 44 VRB6 30.03F HX 101  
GREENVILLE FAIR 95 72 46 N3 30.04F HX 103  
WASHINGTON FAIR 93 71 47 N6 30.03S HX 100  
ELIZABETH CITY FAIR 88 74 63 E7 30.04S HX 96  
MANTEO FAIR 85 69 59 E5 30.05S  
CAPE HATTERAS FAIR 86 78 77 S5 30.03F HX 98  

 
 
NCZ078-087-090-091-093-098-101-152300-  
SOUTHEASTERN NORTH CAROLINA  
 
CITY SKY/WX TMP DP RH WIND PRES REMARKS
 
GOLDSBORO FAIR 94 70 45 E3 30.01F HX 100  
KINSTON SUNNY 95 66 38 NE3 30.03F HX 98  
KENANSVILLE FAIR 93 70 46 N6 30.02F HX 99  
NEW BERN FAIR 91 75 59 S6 30.03F HX 101  
CHERRY POINT FAIR 92 67 43 S7 30.03F HX 95  
BEAUFORT FAIR 88 75 65 S8 30.03F HX 97  
JACKSONVILLE FAIR 91 72 53 S13 30.01F HX 98  
WILMINGTON FAIR 92 69 47 S9 30.02F HX 97  

 
 
 
 
CLICK HERE TO GO TO PREVIOUS BULLETINS.

The Nexlab NC Page Main Text Page